Theta_e
306 306 304 304 305 305 304 304 306 305 304 305 302 299 297 296 295 295 294 294 293 294 295 296 297 297 296 297 297 297 296 297 298 299 300 299 299 299 298 297 298 299 298 298
306 306 306 306 304 304 305 307 304 304 304 305 301 298 296 296 296 295 294 293 293 293 294 295 295 296 296 296 296 296 296 296 296 297 298 299 298 298 298 297 297 298 298 299
305 307 306 304 303 303 302 306 304 304 303 303 300 301 298 295 295 295 294 293 293 293 293 294 295 295 295 295 295 296 296 296 295 296 297 297 296 296 297 297 297 298 297 297
306 305 305 303 303 303 303 304 302 302 302 301 302 300 297 296 295 294 293 292 292 292 293 293 293 294 294 295 295 295 296 296 295 295 295 296 295 295 296 296 297 297 297 296
308 306 303 303 304 303 302 302 301 303 302 302 299 298 296 295 295 294 293 292 292 292 292 292 293 293 293 293 294 294 296 296 295 295 295 295 295 295 295 296 296 296 296 296
305 306 304 304 303 303 301 300 300 300 300 302 298 298 296 296 295 293 292 292 292 293 293 293 293 293 293 293 293 293 295 295 294 294 294 294 294 294 294 294 294 295 296 296
300 303 302 302 302 301 298 296 301 302 301 301 297 297 297 297 295 293 292 292 293 293 293 294 294 293 293 293 293 293 295 295 294 294 294 294 294 294 294 294 294 294 295 295
298 300 301 301 303 303 299 297 298 301 299 297 298 299 299 294 293 292 293 293 294 294 294 294 294 294 293 294 293 293 294 294 294 293 294 294 294 293 293 293 294 294 294 295
297 298 300 298 296 297 298 297 297 298 296 296 296 295 295 292 292 292 293 293 294 294 294 294 294 294 294 294 293 293 294 294 294 293 294 294 294 294 293 293 293 294 294 294
298 299 298 299 297 295 295 295 294 294 292 293 294 294 294 291 291 292 293 294 294 294 294 294 295 294 294 294 294 294 294 294 294 294 294 294 294 294 294 293 294 294 294 294
296 295 296 297 295 295 294 294 293 293 295 292 293 293 291 290 291 292 293 294 294 294 294 294 294 294 294 294 294 294 294 294 294 294 294 294 294 294 294 294 294 294 295 294
297 293 294 298 294 293 293 294 292 290 289 290 286 290 290 291 291 293 293 294 294 294 294 294 294 294 293 294 294 294 294 294 294 294 294 294 294 294 295 295 295 295 295 296
299 294 291 294 295 293 293 292 290 290 287 285 284 289 292 292 292 293 293 294 294 294 293 294 293 293 293 294 294 294 294 295 295 295 295 295 295 295 295 296 296 296 297 297
297 294 292 292 293 293 293 292 291 288 283 284 290 290 292 293 293 293 293 294 293 293 293 293 293 293 293 294 294 294 295 295 295 295 295 295 296 296 297 297 297 298 298 298
292 294 295 295 292 292 292 292 292 287 290 285 292 292 292 292 293 293 293 293 293 293 293 292 292 292 293 294 294 295 295 295 295 295 296 296 297 297 297 298 298 298 298 298
291 293 293 294 292 291 293 292 292 293 293 291 292 292 293 293 293 293 293 293 293 293 292 292 292 293 294 294 295 294 294 295 295 295 296 296 297 297 297 297 297 297 297 298
292 291 289 289 289 291 290 292 292 292 292 291 292 292 292 293 293 293 292 292 292 292 292 292 293 294 294 294 294 294 294 295 295 296 296 297 297 297 297 296 296 297 297 297
290 291 286 286 288 287 289 291 290 291 292 291 293 293 292 293 293 292 292 292 292 292 292 292 293 294 294 294 294 294 294 295 295 296 297 299 300 299 298 299 300 300 301 303
288 287 280 286 288 288 291 291 291 292 292 293 292 292 293 293 292 292 292 292 292 291 292 293 293 294 294 294 293 294 294 294 295 297 300 301 300 300 299 298 298 300 303 305
288 285 285 280 285 289 290 290 290 290 290 292 292 292 292 292 294 293 292 292 291 291 292 293 293 293 293 293 294 294 294 294 297 299 302 300 299 299 298 297 298 300 301 300
284 280 282 286 282 287 288 289 290 288 288 292 291 292 292 292 292 292 292 291 291 291 292 293 293 293 293 293 293 293 294 296 298 301 300 299 299 299 298 298 299 299 299 300
289 284 281 278 280 288 290 291 291 290 290 290 291 292 292 292 292 291 291 291 291 291 292 293 293 293 293 293 293 293 294 296 299 299 298 297 297 297 297 298 298 298 298 298
288 287 285 286 287 286 288 290 290 290 289 290 291 291 291 291 291 291 291 291 291 292 292 292 292 292 292 293 293 294 295 297 299 298 298 298 297 297 297 297 296 296 295 295
288 286 286 288 288 289 289 289 290 290 290 290 291 291 291 291 291 291 291 291 291 292 292 292 292 292 292 292 293 294 295 297 298 298 298 298 298 297 297 296 296 295 295 294
286 286 287 287 288 289 290 289 289 289 290 291 291 292 291 291 291 291 291 291 291 292 292 292 291 291 291 292 292 294 295 298 299 299 298 297 297 296 296 296 295 295 294 293
285 287 288 288 288 289 288 288 289 289 290 291 291 291 291 291 291 291 291 291 291 292 291 291 291 291 291 292 292 294 295 299 299 298 297 296 295 295 295 294 294 294 294 293
Wind_Speed
7 11 6 5 4 2 3 2 3 2 3 6 5 6 7 11 17 16 15 16 17 17 23 31 32 33 34 38 38 38 38 36 30 28 24 19 23 25 28 31 28 28 26 27
7 7 4 2 6 2 1 1 4 5 3 6 5 7 9 11 9 11 13 14 16 18 19 29 32 31 32 33 35 38 40 40 34 32 25 21 23 25 26 27 31 28 23 24
8 3 4 2 5 10 3 2 4 6 5 4 8 3 4 5 10 12 11 8 13 15 18 21 31 32 33 34 36 35 39 40 39 32 29 27 28 26 27 32 30 27 23 24
7 5 5 8 6 5 5 3 8 7 3 4 4 4 3 5 11 15 13 12 16 17 18 25 28 29 33 35 36 34 35 39 38 38 35 32 29 26 33 32 33 28 25 24
1 5 7 7 5 4 7 16 6 1 3 2 0 1 3 6 13 18 17 16 17 19 19 22 29 32 34 34 34 36 36 39 36 40 37 35 33 31 31 30 32 33 33 30
2 3 4 3 3 3 10 7 2 3 3 1 4 3 3 4 6 13 16 19 20 20 21 30 34 35 35 37 35 35 34 34 36 37 38 37 35 36 32 31 32 34 34 33
7 4 6 4 5 6 10 7 5 5 4 3 5 4 1 4 6 7 18 20 21 21 22 23 32 36 39 40 41 39 37 40 38 36 36 37 36 38 37 37 32 33 31 31
6 6 7 8 3 3 4 5 3 5 4 7 6 1 2 2 7 17 24 21 21 21 19 22 33 36 38 40 40 39 38 40 40 38 38 38 37 35 35 34 36 36 33 35
4 3 1 7 5 4 5 7 2 4 3 2 3 1 3 13 23 22 26 27 24 23 22 23 36 36 38 39 40 40 41 41 41 41 41 39 38 35 36 37 37 37 36 36
3 5 3 4 5 10 9 4 4 4 6 6 4 4 4 15 20 21 27 27 27 26 26 26 35 38 39 40 41 41 41 41 42 41 40 38 38 38 37 34 36 36 36 36
3 2 4 3 7 5 6 4 4 2 2 3 5 5 3 12 17 18 25 24 25 27 26 25 36 40 42 42 41 42 41 42 43 41 41 40 40 38 35 37 34 35 35 33
2 3 2 2 2 6 5 3 3 4 6 2 3 6 3 18 17 18 24 24 25 26 26 32 37 40 40 42 41 41 41 41 42 41 42 41 40 37 38 34 37 34 29 31
1 2 4 1 2 3 6 3 4 5 2 3 2 6 17 19 18 25 25 27 27 27 27 27 36 37 39 40 41 42 41 43 41 40 39 39 38 36 34 36 32 35 32 32
2 2 4 4 2 1 3 4 3 4 3 3 7 16 23 24 21 28 28 28 28 26 27 27 30 37 41 43 42 42 45 43 43 39 37 37 37 35 34 34 34 33 31 29
3 3 2 2 4 1 2 2 3 2 4 3 14 18 20 14 22 24 25 26 27 28 29 30 28 34 42 45 47 44 46 44 43 40 38 36 36 34 33 31 31 29 29 29
4 1 2 2 4 1 3 3 6 0 2 7 13 18 3 19 23 23 25 27 26 28 30 30 30 39 42 45 44 46 44 43 42 38 37 37 35 33 30 30 30 30 30 30
3 2 3 2 4 2 1 2 2 7 5 6 7 9 13 26 25 27 27 25 26 29 29 30 30 39 43 44 46 42 46 45 40 37 37 34 31 30 28 30 31 31 31 30
3 3 3 2 2 3 3 3 5 9 10 5 4 15 16 20 22 24 20 19 27 28 27 30 38 43 45 47 47 46 45 42 40 37 37 34 28 26 27 27 26 28 29 21
4 4 3 2 1 3 1 4 4 2 12 2 14 21 20 20 18 16 19 26 24 32 38 40 44 46 45 46 47 45 43 41 38 40 37 33 28 24 24 27 29 31 28 38
6 7 4 3 2 2 3 5 4 2 4 1 15 18 21 21 16 18 27 35 36 40 39 42 44 45 45 48 46 43 42 38 39 39 37 29 26 27 28 26 29 31 33 41
3 3 3 1 1 6 5 7 6 5 5 15 14 16 17 12 12 22 34 35 38 38 40 45 43 41 45 46 45 41 40 39 42 34 34 29 29 29 28 28 29 32 36 39
4 4 2 3 3 4 3 3 2 5 5 8 12 14 16 17 21 21 28 32 38 39 41 42 41 43 46 46 43 40 39 43 39 34 34 32 31 32 31 30 29 30 34 36
1 5 4 7 4 2 3 5 5 5 7 6 11 16 14 17 20 21 21 31 36 37 38 39 39 43 44 45 44 40 42 43 32 32 32 30 33 34 33 32 30 30 32 32
2 2 2 2 1 4 5 4 4 4 7 13 17 16 17 17 20 21 26 31 33 36 37 38 38 41 42 45 45 43 42 39 31 30 30 30 34 37 36 35 35 32 29 28
3 4 3 4 5 6 3 4 6 7 14 16 20 19 18 18 19 24 27 30 34 35 36 36 36 38 40 43 43 42 42 33 28 27 28 29 29 32 37 43 38 37 38 32
4 5 4 4 4 3 7 6 13 6 10 17 15 17 23 20 24 27 27 30 33 35 37 36 36 38 41 41 41 40 42 30 27 25 25 26 25 26 28 31 37 44 42 40
Wind_Direction
22 58 63 42 1 264 242 248 275 262 8 86 99 108 62 57 50 38 27 19 11 360 344 350 346 343 344 344 340 339 337 333 321 313 305 299 304 313 318 320 315 312 311 308
45 64 318 216 352 338 137 242 311 299 19 85 168 109 86 64 57 47 25 12 359 353 349 344 340 338 338 334 331 332 330 338 329 318 308 301 305 307 306 313 313 310 308 307
86 328 327 34 11 14 353 47 313 265 345 58 132 186 163 68 46 24 16 356 354 345 338 336 332 328 327 328 327 321 324 326 334 338 324 322 322 318 307 306 307 298 298 300
68 351 24 28 49 35 298 213 292 290 157 220 193 284 77 9 11 10 355 348 343 338 333 327 328 327 323 319 320 320 320 324 331 333 333 329 321 309 309 303 303 294 294 296
314 12 20 25 355 336 265 304 299 272 177 81 157 347 34 8 2 353 347 340 338 335 329 328 329 326 323 318 319 318 319 319 323 327 325 322 315 312 312 309 304 300 294 291
39 357 53 302 335 333 295 326 49 83 113 246 153 62 47 11 318 335 343 343 336 333 328 327 327 326 324 323 319 317 314 315 314 315 314 312 310 311 304 304 294 292 295 291
344 18 340 28 354 356 15 2 337 0 3 264 84 12 169 270 284 312 337 339 340 338 333 330 328 326 322 321 319 317 315 313 312 309 306 303 299 302 296 298 292 288 288 287
22 332 11 326 49 281 29 62 100 290 305 300 350 44 198 231 286 342 349 337 334 337 331 324 322 320 318 317 315 311 310 308 307 304 303 299 296 290 287 284 286 282 280 284
4 255 358 50 21 356 347 44 323 285 355 17 322 348 51 339 0 347 341 336 336 332 326 321 319 318 315 313 310 310 308 304 303 301 300 295 293 288 285 281 280 274 273 279
329 319 40 336 12 18 77 331 8 12 343 318 329 313 319 348 352 341 340 332 328 326 321 319 318 316 314 312 310 309 309 304 302 301 299 295 294 291 288 280 283 275 273 279
13 66 317 39 27 347 8 26 33 97 106 230 304 276 189 349 345 333 331 325 323 320 318 317 315 315 314 312 314 313 310 309 307 305 303 302 297 294 292 293 287 285 283 279
348 136 311 25 99 65 68 74 87 104 297 244 157 276 286 347 335 331 326 322 320 316 314 315 317 317 317 316 318 316 314 312 308 308 308 304 301 297 295 291 288 288 277 277
344 24 346 211 248 37 53 40 60 94 92 238 94 275 323 327 330 330 326 325 323 319 320 320 322 322 320 322 322 320 319 314 312 309 305 302 299 295 292 291 285 285 280 275
107 101 138 197 276 215 7 40 64 105 85 270 256 295 317 326 332 326 324 322 319 319 321 322 323 324 325 325 324 322 320 318 314 310 304 300 299 297 295 291 288 285 281 276
76 108 60 55 74 35 89 41 11 126 216 150 300 304 312 316 319 316 314 319 321 321 325 325 325 327 326 325 326 323 321 319 318 315 311 306 303 300 297 292 291 286 284 278
351 75 67 55 351 261 117 9 343 35 262 258 301 304 308 316 318 322 323 323 321 323 324 325 325 329 324 325 324 322 321 320 318 315 311 309 307 306 302 302 300 294 286 278
46 70 48 343 341 122 323 201 337 294 259 273 302 305 321 323 325 324 320 317 324 324 327 326 328 325 324 325 325 324 323 321 318 316 313 314 313 313 317 313 307 299 289 278
102 75 65 255 337 3 235 247 249 276 302 295 319 315 317 312 311 310 305 327 326 327 326 324 328 326 327 327 327 327 326 324 324 324 326 329 333 329 330 330 344 352 325 300
56 104 48 103 225 314 33 325 314 330 313 134 340 328 324 321 316 314 335 332 325 325 324 324 329 329 329 330 329 330 329 332 331 335 338 347 0 6 16 15 3 359 25 50
68 65 108 51 71 267 183 286 285 150 286 7 339 322 322 331 337 323 328 325 326 326 327 328 331 332 333 333 333 333 334 336 341 342 352 24 24 27 28 19 16 24 47 57
17 10 110 116 225 287 258 302 319 47 264 328 325 314 316 319 304 304 317 323 327 326 328 333 335 335 335 335 338 337 338 343 340 357 10 22 28 27 29 29 34 43 54 60
176 135 175 86 55 317 192 341 99 245 293 293 307 311 312 310 312 316 322 325 327 329 333 339 338 338 337 338 340 339 343 342 350 13 18 26 35 36 30 33 37 46 57 60
309 181 181 176 220 240 246 210 258 274 286 298 312 311 314 314 318 321 325 327 327 329 333 341 340 337 338 341 343 341 345 349 12 19 22 31 41 39 38 39 42 47 53 57
237 158 154 49 264 249 272 275 233 280 295 307 307 310 321 320 320 321 328 329 328 331 338 342 343 339 338 341 343 344 349 358 12 22 24 34 44 46 46 47 48 48 49 54
195 131 160 271 294 311 344 250 305 307 309 312 321 322 317 317 320 325 327 330 328 331 339 346 343 339 338 341 342 347 354 6 12 23 29 36 44 49 54 55 54 57 58 61
187 175 157 217 222 196 270 294 319 322 320 318 319 318 320 325 320 327 328 330 329 336 341 344 343 340 338 341 343 349 359 10 19 25 29 36 41 48 55 61 63 62 65 66